• In United Kingdom
  • List of Countries
  • For 7 days
  • Water Temperature
  • Satellite Maps
  • Weather Map
  • Weather Widgets
  • user-avatar
    Login

    Hourly Weather Ordino

    Today, 24 August, Thursday

    Time Temperature Precipitation Wind Pressure Humidity
    00:00 +16°C° 0 mm 1 mps 637 mmHg 78%
    01:00 +15°C° 0.3 mm 1 mps 636 mmHg 78%
    02:00 +15°C° 0.3 mm 1 mps 636 mmHg 78%
    03:00 +14°C° 0.3 mm 1 mps 636 mmHg 79%
    04:00 +14°C° 0 mm 1 mps 636 mmHg 76%
    05:00 +14°C° 0 mm 1 mps 636 mmHg 74%
    06:00 +14°C° 0 mm 1 mps 636 mmHg 71%
    07:00 +18°C° 0 mm 1 mps 637 mmHg 62%
    08:00 +20°C° 0 mm 2 mps 638 mmHg 52%
    09:00 +24°C° 0 mm 2 mps 639 mmHg 43%
    10:00 +25°C° 0 mm 2 mps 639 mmHg 40%
    11:00 +26°C° 0 mm 3 mps 640 mmHg 37%
    12:00 +27°C° 0 mm 3 mps 640 mmHg 34%
    13:00 +27°C° 0 mm 3 mps 640 mmHg 35%
    14:00 +27°C° 0 mm 3 mps 639 mmHg 35%
    15:00 +27°C° 0 mm 3 mps 639 mmHg 36%
    16:00 +25°C° 0 mm 3 mps 639 mmHg 41%
    17:00 +22°C° 0 mm 3 mps 638 mmHg 46%
    18:00 +21°C° 0 mm 2 mps 637 mmHg 51%
    19:00 +19°C° 0 mm 2 mps 637 mmHg 53%
    20:00 +17°C° 0 mm 2 mps 637 mmHg 55%
    21:00 +16°C° 0 mm 2 mps 637 mmHg 57%
    22:00 +15°C° 0 mm 1 mps 637 mmHg 55%
    23:00 +15°C° 0 mm 1 mps 637 mmHg 53%

    Tomorrow, 25 August, Friday

    Time Temperature Precipitation Wind Pressure Humidity
    00:00 +15°C° 0 mm 1 mps 636 mmHg 51%
    01:00 +14°C° 0 mm 1 mps 636 mmHg 53%
    02:00 +14°C° 0 mm 1 mps 636 mmHg 55%
    03:00 +14°C° 0 mm 1 mps 636 mmHg 57%
    04:00 +14°C° 0.1 mm 1 mps 636 mmHg 59%
    05:00 +14°C° 0.1 mm 1 mps 636 mmHg 61%
    06:00 +14°C° 0.1 mm 1 mps 636 mmHg 63%
    07:00 +17°C° 0.1 mm 2 mps 637 mmHg 56%
    08:00 +20°C° 0.1 mm 2 mps 638 mmHg 49%
    09:00 +23°C° 0.1 mm 2 mps 639 mmHg 43%
    10:00 +24°C° 0.1 mm 3 mps 639 mmHg 40%
    11:00 +25°C° 0.1 mm 3 mps 640 mmHg 37%
    12:00 +26°C° 0.1 mm 3 mps 640 mmHg 34%
    13:00 +27°C° 0 mm 4 mps 639 mmHg 34%
    14:00 +27°C° 0 mm 4 mps 639 mmHg 33%
    15:00 +27°C° 0 mm 4 mps 639 mmHg 33%
    16:00 +25°C° 0 mm 3 mps 638 mmHg 39%
    17:00 +22°C° 0 mm 3 mps 638 mmHg 46%
    18:00 +21°C° 0 mm 2 mps 637 mmHg 52%
    19:00 +19°C° 0.1 mm 2 mps 637 mmHg 56%
    20:00 +17°C° 0.1 mm 2 mps 636 mmHg 60%
    21:00 +16°C° 0.1 mm 2 mps 636 mmHg 64%
    22:00 +15°C° 0.2 mm 2 mps 636 mmHg 62%
    23:00 +15°C° 0.2 mm 2 mps 636 mmHg 61%

    Day after tomorrow, 26 August, Saturday

    Time Temperature Precipitation Wind Pressure Humidity
    00:00 +15°C° 0.2 mm 2 mps 635 mmHg 60%
    01:00 +15°C° 0.2 mm 2 mps 635 mmHg 57%
    02:00 +15°C° 0.2 mm 2 mps 635 mmHg 55%
    03:00 +15°C° 0.2 mm 2 mps 635 mmHg 53%
    04:00 +15°C° 0.3 mm 2 mps 635 mmHg 55%
    05:00 +15°C° 0.3 mm 1 mps 635 mmHg 58%
    06:00 +15°C° 0.3 mm 1 mps 635 mmHg 61%
    07:00 +17°C° 0.2 mm 2 mps 636 mmHg 56%
    08:00 +19°C° 0.2 mm 2 mps 637 mmHg 50%
    09:00 +23°C° 0.2 mm 2 mps 638 mmHg 45%
    10:00 +24°C° 0 mm 3 mps 638 mmHg 40%
    11:00 +26°C° 0 mm 3 mps 639 mmHg 36%
    12:00 +27°C° 0 mm 4 mps 639 mmHg 31%
    13:00 +27°C° 0 mm 4 mps 639 mmHg 31%
    14:00 +27°C° 0 mm 4 mps 638 mmHg 31%
    15:00 +28°C° 0 mm 4 mps 638 mmHg 32%
    16:00 +26°C° 0 mm 3 mps 637 mmHg 39%
    17:00 +24°C° 0 mm 3 mps 637 mmHg 46%
    18:00 +21°C° 0 mm 2 mps 636 mmHg 53%
    19:00 +20°C° 0.1 mm 2 mps 636 mmHg 58%
    20:00 +18°C° 0.1 mm 2 mps 636 mmHg 62%
    21:00 +17°C° 0.1 mm 2 mps 636 mmHg 67%
    22:00 +17°C° 0 mm 2 mps 636 mmHg 64%
    23:00 +16°C° 0 mm 1 mps 636 mmHg 62%

    27 August, Sunday

    Time Temperature Precipitation Wind Pressure Humidity
    00:00 +16°C° 0 mm 1 mps 636 mmHg 60%
    01:00 +16°C° 0 mm 1 mps 636 mmHg 58%
    02:00 +15°C° 0 mm 1 mps 636 mmHg 55%
    03:00 +15°C° 0 mm 1 mps 635 mmHg 53%
    04:00 +15°C° 0 mm 1 mps 635 mmHg 54%
    05:00 +15°C° 0 mm 1 mps 635 mmHg 55%
    06:00 +15°C° 0 mm 1 mps 635 mmHg 57%
    07:00 +19°C° 0 mm 1 mps 637 mmHg 49%
    08:00 +22°C° 0 mm 1 mps 638 mmHg 42%
    09:00 +25°C° 0 mm 1 mps 639 mmHg 35%
    10:00 +26°C° 0 mm 2 mps 640 mmHg 33%
    11:00 +27°C° 0 mm 2 mps 640 mmHg 30%
    12:00 +28°C° 0 mm 2 mps 640 mmHg 28%
    13:00 +28°C° 0 mm 2 mps 640 mmHg 30%
    14:00 +28°C° 0 mm 2 mps 640 mmHg 31%
    15:00 +28°C° 0 mm 2 mps 639 mmHg 33%
    16:00 +26°C° 0.2 mm 1 mps 639 mmHg 40%
    17:00 +24°C° 0.2 mm 1 mps 638 mmHg 47%
    18:00 +22°C° 0.2 mm 1 mps 638 mmHg 54%
    19:00 +21°C° 0 mm 1 mps 638 mmHg 57%
    20:00 +20°C° 0 mm 1 mps 638 mmHg 60%
    21:00 +19°C° 0 mm 1 mps 637 mmHg 63%
    22:00 +19°C° 0 mm 1 mps 637 mmHg 64%
    23:00 +18°C° 0 mm 1 mps 637 mmHg 64%

    28 August, Monday

    Time Temperature Precipitation Wind Pressure Humidity
    00:00 +18°C° 0 mm 1 mps 637 mmHg 64%
    01:00 +18°C° 0 mm 1 mps 637 mmHg 62%
    02:00 +18°C° 0 mm 1 mps 637 mmHg 60%
    03:00 +16°C° 0 mm 1 mps 637 mmHg 58%
    04:00 +16°C° 0 mm 1 mps 637 mmHg 58%
    05:00 +16°C° 0 mm 1 mps 637 mmHg 57%
    06:00 +16°C° 0 mm 1 mps 637 mmHg 57%
    07:00 +20°C° 0 mm 1 mps 638 mmHg 50%
    08:00 +23°C° 0 mm 1 mps 639 mmHg 42%
    09:00 +26°C° 0 mm 1 mps 640 mmHg 35%
    10:00 +27°C° 0 mm 1 mps 640 mmHg 32%
    11:00 +28°C° 0 mm 2 mps 640 mmHg 30%
    12:00 +29°C° 0 mm 2 mps 640 mmHg 27%
    13:00 +29°C° 0 mm 2 mps 640 mmHg 28%
    14:00 +29°C° 0 mm 3 mps 639 mmHg 30%
    15:00 +28°C° 0 mm 3 mps 639 mmHg 31%
    16:00 +27°C° 0 mm 2 mps 639 mmHg 37%
    17:00 +25°C° 0 mm 2 mps 638 mmHg 43%
    18:00 +23°C° 0 mm 2 mps 637 mmHg 49%
    19:00 +22°C° 0 mm 1 mps 637 mmHg 52%
    20:00 +21°C° 0 mm 1 mps 637 mmHg 54%
    21:00 +20°C° 0 mm 1 mps 636 mmHg 57%
    22:00 +19°C° 0 mm 1 mps 636 mmHg 59%
    23:00 +19°C° 0 mm 1 mps 636 mmHg 60%

    29 August, Tuesday

    Time Temperature Precipitation Wind Pressure Humidity
    00:00 +18°C° 0 mm 1 mps 635 mmHg 61%
    01:00 +18°C° 0 mm 1 mps 635 mmHg 59%
    02:00 +18°C° 0 mm 1 mps 635 mmHg 57%
    03:00 +18°C° 0 mm 1 mps 635 mmHg 55%
    04:00 +18°C° 0 mm 1 mps 635 mmHg 55%
    05:00 +18°C° 0 mm 1 mps 635 mmHg 55%
    06:00 +18°C° 0 mm 1 mps 636 mmHg 56%
    07:00 +21°C° 0 mm 1 mps 636 mmHg 50%
    08:00 +23°C° 0 mm 2 mps 637 mmHg 44%
    09:00 +25°C° 0 mm 2 mps 638 mmHg 38%
    10:00 +27°C° 0 mm 2 mps 638 mmHg 35%
    11:00 +28°C° 0 mm 3 mps 638 mmHg 33%
    12:00 +29°C° 0 mm 3 mps 639 mmHg 31%
    13:00 +28°C° 0 mm 3 mps 638 mmHg 32%
    14:00 +28°C° 0 mm 3 mps 638 mmHg 33%
    15:00 +28°C° 0 mm 3 mps 638 mmHg 34%
    16:00 +26°C° 0 mm 2 mps 637 mmHg 40%
    17:00 +25°C° 0 mm 2 mps 637 mmHg 45%
    18:00 +23°C° 0 mm 1 mps 637 mmHg 50%
    19:00 +22°C° 0.2 mm 1 mps 636 mmHg 55%
    20:00 +20°C° 0.2 mm 1 mps 636 mmHg 59%
    21:00 +19°C° 0.2 mm 1 mps 636 mmHg 63%
    22:00 +18°C° 0 mm 1 mps 636 mmHg 63%
    23:00 +18°C° 0 mm 1 mps 635 mmHg 64%
    Show more